Overview Statistics Trail Chart Weather Telemetry Raw packets
 

This is the latest recevied weather packets stored in our database for station/object BG5HLN-13. If no packets are shown the sender has not sent any weather packets the latest 10 day(s).

<< 5 6 7 8 9 10 11 >>
Time Temp. Humidity Pressure Rain* Wind** Luminosity Snow
1788518693 31.11° C 85% 1007.2 hPa 0 mm - - -
1788518093 31.11° C 85% 1007.1 hPa 0 mm - - -
1788517492 31.11° C 85% 1006.9 hPa 0 mm - - -
1788516892 31.11° C 86% 1006.8 hPa 0 mm - - -
1788516292 31.11° C 85% 1006.7 hPa 0 mm - - -
1788515693 31.11° C 86% 1006.5 hPa 0 mm - - -
1788515091 31.11° C 87% 1006.5 hPa 0 mm - - -
1788514492 31.11° C 87% 1006.4 hPa 0 mm - - -
1788513892 31.11° C 87% 1006.5 hPa 0 mm - - -
1788513292 31.11° C 87% 1006.5 hPa 0 mm - - -
1788512692 31.11° C 87% 1006.5 hPa 0 mm - - -
1788512092 31.11° C 87% 1006.5 hPa 0 mm - - -
1788511491 31.11° C 86% 1006.4 hPa 0 mm - - -
1788510891 30.56° C 86% 1006.3 hPa 0 mm - - -
1788510292 31.11° C 84% 1006.3 hPa 0.25 mm - - -
1788509692 31.67° C 84% 1006.3 hPa 0.25 mm - - -
1788509091 32.22° C 85% 1006.4 hPa 0.25 mm - - -
1788508495 32.22° C 84% 1006.4 hPa 0.51 mm - - -
1788507891 32.22° C 86% 1006.2 hPa 0.51 mm - - -
1788507292 31.67° C 87% 1006.2 hPa 0.51 mm - - -
1788506691 31.67° C 85% 1006.2 hPa 0.25 mm - - -
1788506091 31.67° C 85% 1006.3 hPa 0.25 mm - - -
1788505491 31.67° C 85% 1006.4 hPa 0.25 mm - - -
1788504891 31.11° C 85% 1006.5 hPa 0 mm - - -
1788504291 31.11° C 84% 1006.5 hPa 0 mm - - -

* Rain latest hour (hover to see other rain measurements)
** Current wind speed in m/s (hover to see current wind gust speed)